Time,TemperatureF,DewpointF,PressureIn,WindDirection,WindDirectionDegrees,WindSpeedMPH,WindSpeedGustMPH,Humidity,HourlyPrecipIn,Conditions,Clouds,dailyrainin,SoftwareType,DateUTC
2013-05-19 00:03:00,65.8,28.1,25.94,North,0,0.0,0.0,24,0.00,,---,0.00,VWS V13.01,2013-05-19 06:03:00,
2013-05-19 00:08:00,66.0,28.2,25.94,North,0,0.0,0.0,24,0.00,,---,0.00,VWS V13.01,2013-05-19 06:08:00,
2013-05-19 00:13:00,66.0,28.2,25.94,North,0,0.0,0.0,24,0.00,,---,0.00,VWS V13.01,2013-05-19 06:13:00,
2013-05-19 00:18:00,65.8,28.1,25.94,North,0,0.0,0.0,24,0.00,,---,0.00,VWS V13.01,2013-05-19 06:18:00,
2013-05-19 00:23:00,65.5,27.8,25.94,North,0,0.0,0.0,24,0.00,,---,0.00,VWS V13.01,2013-05-19 06:23:00,
2013-05-19 00:28:00,65.1,27.5,25.94,North,0,0.0,0.0,24,0.00,,---,0.00,VWS V13.01,2013-05-19 06:28:00,
2013-05-19 00:33:00,65.3,28.6,25.94,North,0,0.0,0.0,25,0.00,,---,0.00,VWS V13.01,2013-05-19 06:33:00,
2013-05-19 00:38:00,65.7,28.9,25.94,North,0,0.0,0.0,25,0.00,,---,0.00,VWS V13.01,2013-05-19 06:38:00,
2013-05-19 00:43:00,65.8,29.1,25.94,North,0,0.0,0.0,25,0.00,,---,0.00,VWS V13.01,2013-05-19 06:43:00,
2013-05-19 00:48:00,66.0,30.2,25.94,North,0,0.0,0.0,26,0.00,,---,0.00,VWS V13.01,2013-05-19 06:48:00,
2013-05-19 00:53:00,66.0,30.2,25.94,North,0,0.0,0.0,26,0.00,,---,0.00,VWS V13.01,2013-05-19 06:53:00,
2013-05-19 00:58:00,66.0,30.2,25.94,North,0,0.0,0.0,26,0.00,,---,0.00,VWS V13.01,2013-05-19 06:58:00,
2013-05-19 01:03:00,66.2,29.4,25.94,North,0,0.0,0.0,25,0.00,,---,0.00,VWS V13.01,2013-05-19 07:03:00,
2013-05-19 01:08:00,66.2,29.4,25.94,North,0,0.0,0.0,25,0.00,,---,0.00,VWS V13.01,2013-05-19 07:08:00,
2013-05-19 01:13:00,66.2,29.4,25.94,North,0,0.0,0.0,25,0.00,,---,0.00,VWS V13.01,2013-05-19 07:13:00,
2013-05-19 01:18:00,66.2,29.4,25.94,North,0,0.0,0.0,25,0.00,,---,0.00,VWS V13.01,2013-05-19 07:18:00,
2013-05-19 01:23:00,66.4,29.5,25.94,North,0,0.0,0.0,25,0.00,,---,0.00,VWS V13.01,2013-05-19 07:23:00,
2013-05-19 01:28:00,66.2,29.4,25.94,North,0,0.0,0.0,25,0.00,,---,0.00,VWS V13.01,2013-05-19 07:28:00,
2013-05-19 01:33:00,66.0,29.2,25.94,North,0,0.0,0.0,25,0.00,,---,0.00,VWS V13.01,2013-05-19 07:33:00,
2013-05-19 01:38:00,65.8,29.1,25.94,North,0,0.0,0.0,25,0.00,,---,0.00,VWS V13.01,2013-05-19 07:38:00,
2013-05-19 01:43:00,65.7,28.9,25.94,North,0,0.0,0.0,25,0.00,,---,0.00,VWS V13.01,2013-05-19 07:43:00,
2013-05-19 01:48:00,65.8,29.1,25.94,North,0,0.0,0.0,25,0.00,,---,0.00,VWS V13.01,2013-05-19 07:48:00,
2013-05-19 01:53:00,66.0,29.2,25.91,North,0,0.0,0.0,25,0.00,,---,0.00,VWS V13.01,2013-05-19 07:53:00,
2013-05-19 01:58:00,66.2,28.4,25.91,North,0,0.0,0.0,24,0.00,,---,0.00,VWS V13.01,2013-05-19 07:58:00,
2013-05-19 02:03:00,66.7,28.8,25.91,North,0,0.0,0.0,24,0.00,,---,0.00,VWS V13.01,2013-05-19 08:03:00,
2013-05-19 02:08:00,67.3,28.2,25.91,North,0,0.0,0.0,23,0.00,,---,0.00,VWS V13.01,2013-05-19 08:08:00,
2013-05-19 02:13:00,67.6,28.5,25.91,North,0,0.0,0.0,23,0.00,,---,0.00,VWS V13.01,2013-05-19 08:13:00,
2013-05-19 02:18:00,68.0,27.8,25.91,North,0,0.0,0.0,22,0.00,,---,0.00,VWS V13.01,2013-05-19 08:18:00,
2013-05-19 02:23:00,68.2,27.9,25.91,North,0,0.0,0.0,22,0.00,,---,0.00,VWS V13.01,2013-05-19 08:23:00,
2013-05-19 02:28:00,68.4,28.1,25.91,North,0,0.0,0.0,22,0.00,,---,0.00,VWS V13.01,2013-05-19 08:28:00,
2013-05-19 02:33:00,68.4,28.1,25.91,North,0,0.0,0.0,22,0.00,,---,0.00,VWS V13.01,2013-05-19 08:33:00,
2013-05-19 02:38:00,68.4,28.1,25.91,North,0,0.0,0.0,22,0.00,,---,0.00,VWS V13.01,2013-05-19 08:38:00,
2013-05-19 02:43:00,68.0,27.8,25.91,North,0,0.0,0.0,22,0.00,,---,0.00,VWS V13.01,2013-05-19 08:43:00,
2013-05-19 02:48:00,67.6,27.5,25.91,North,0,0.0,0.0,22,0.00,,---,0.00,VWS V13.01,2013-05-19 08:48:00,
2013-05-19 02:53:00,67.3,27.2,25.88,North,0,0.0,0.0,22,0.00,,---,0.00,VWS V13.01,2013-05-19 08:53:00,
2013-05-19 02:58:00,66.7,26.7,25.88,North,0,0.0,0.0,22,0.00,,---,0.00,VWS V13.01,2013-05-19 08:58:00,
2013-05-19 03:03:00,66.2,26.3,25.88,North,0,0.0,0.0,22,0.00,,---,0.00,VWS V13.01,2013-05-19 09:03:00,
2013-05-19 03:08:00,65.7,26.9,25.91,North,0,0.0,0.0,23,0.00,,---,0.00,VWS V13.01,2013-05-19 09:08:00,
2013-05-19 03:13:00,65.5,26.7,25.91,North,0,0.0,0.0,23,0.00,,---,0.00,VWS V13.01,2013-05-19 09:13:00,
2013-05-19 03:18:00,65.7,26.9,25.91,North,0,0.0,0.0,23,0.00,,---,0.00,VWS V13.01,2013-05-19 09:18:00,
2013-05-19 03:23:00,65.7,26.9,25.91,North,0,0.0,0.0,23,0.00,,---,0.00,VWS V13.01,2013-05-19 09:23:00,
2013-05-19 03:28:00,65.5,26.7,25.91,North,0,0.0,0.0,23,0.00,,---,0.00,VWS V13.01,2013-05-19 09:28:00,
2013-05-19 03:33:00,65.1,26.4,25.91,North,0,0.0,0.0,23,0.00,,---,0.00,VWS V13.01,2013-05-19 09:33:00,
2013-05-19 03:38:00,64.6,26.0,25.91,North,0,0.0,0.0,23,0.00,,---,0.00,VWS V13.01,2013-05-19 09:38:00,
2013-05-19 03:43:00,64.2,26.7,25.91,North,0,0.0,0.0,24,0.00,,---,0.00,VWS V13.01,2013-05-19 09:43:00,
2013-05-19 03:48:00,63.9,26.4,25.91,North,0,0.0,0.0,24,0.00,,---,0.00,VWS V13.01,2013-05-19 09:48:00,
2013-05-19 03:53:00,63.7,26.2,25.91,North,0,0.0,0.0,24,0.00,,---,0.00,VWS V13.01,2013-05-19 09:53:00,
2013-05-19 03:58:00,63.7,26.2,25.91,North,0,0.0,0.0,24,0.00,,---,0.00,VWS V13.01,2013-05-19 09:58:00,
2013-05-19 04:03:00,63.5,27.1,25.91,North,0,0.0,0.0,25,0.00,,---,0.00,VWS V13.01,2013-05-19 10:03:00,
2013-05-19 04:08:00,63.5,27.1,25.91,North,0,0.0,0.0,25,0.00,,---,0.00,VWS V13.01,2013-05-19 10:08:00,
2013-05-19 04:13:00,63.1,26.8,25.91,North,0,0.0,0.0,25,0.00,,---,0.00,VWS V13.01,2013-05-19 10:13:00,
2013-05-19 04:18:00,63.1,26.8,25.91,North,0,0.0,0.0,25,0.00,,---,0.00,VWS V13.01,2013-05-19 10:18:00,
2013-05-19 04:23:00,63.0,26.6,25.91,North,0,0.0,0.0,25,0.00,,---,0.00,VWS V13.01,2013-05-19 10:23:00,
2013-05-19 04:28:00,63.0,27.6,25.91,North,0,0.0,0.0,26,0.00,,---,0.00,VWS V13.01,2013-05-19 10:28:00,
2013-05-19 04:33:00,62.8,27.4,25.91,North,0,0.0,0.0,26,0.00,,---,0.00,VWS V13.01,2013-05-19 10:33:00,
2013-05-19 04:38:00,62.6,27.3,25.91,North,0,0.0,0.0,26,0.00,,---,0.00,VWS V13.01,2013-05-19 10:38:00,
2013-05-19 04:43:00,62.8,28.3,25.91,North,0,0.0,0.0,27,0.00,,---,0.00,VWS V13.01,2013-05-19 10:43:00,
2013-05-19 04:48:00,63.5,29.8,25.91,North,0,0.0,0.0,28,0.00,,---,0.00,VWS V13.01,2013-05-19 10:48:00,
2013-05-19 04:53:00,64.2,30.5,25.91,North,0,0.0,0.0,28,0.00,,---,0.00,VWS V13.01,2013-05-19 10:53:00,
2013-05-19 04:58:00,64.8,30.0,25.91,North,0,0.0,0.0,27,0.00,,---,0.00,VWS V13.01,2013-05-19 10:58:00,
2013-05-19 05:03:00,65.1,30.3,25.91,North,0,0.0,0.0,27,0.00,,---,0.00,VWS V13.01,2013-05-19 11:03:00,
2013-05-19 05:08:00,65.3,30.5,25.94,North,0,0.0,0.0,27,0.00,,---,0.00,VWS V13.01,2013-05-19 11:08:00,
2013-05-19 05:13:00,65.3,29.6,25.94,North,0,0.0,0.0,26,0.00,,---,0.00,VWS V13.01,2013-05-19 11:13:00,
2013-05-19 05:18:00,65.3,29.6,25.94,North,0,0.0,0.0,26,0.00,,---,0.00,VWS V13.01,2013-05-19 11:18:00,
2013-05-19 05:23:00,65.1,29.4,25.94,North,0,0.0,0.0,26,0.00,,---,0.00,VWS V13.01,2013-05-19 11:23:00,
2013-05-19 05:28:00,65.3,29.6,25.94,North,0,0.0,0.0,26,0.00,,---,0.00,VWS V13.01,2013-05-19 11:28:00,
2013-05-19 05:33:00,65.5,29.7,25.94,North,0,0.0,0.0,26,0.00,,---,0.00,VWS V13.01,2013-05-19 11:33:00,
2013-05-19 05:38:00,65.7,29.9,25.94,North,0,0.0,0.0,26,0.00,,---,0.00,VWS V13.01,2013-05-19 11:38:00,
2013-05-19 05:43:00,65.7,29.9,25.94,North,0,0.0,0.0,26,0.00,,---,0.00,VWS V13.01,2013-05-19 11:43:00,
2013-05-19 05:48:00,65.7,29.9,25.94,North,0,0.0,0.0,26,0.00,,---,0.00,VWS V13.01,2013-05-19 11:48:00,
2013-05-19 05:53:00,65.7,28.9,25.94,North,0,0.0,0.0,25,0.00,,---,0.00,VWS V13.01,2013-05-19 11:53:00,
2013-05-19 05:58:00,65.5,28.8,25.94,North,0,0.0,0.0,25,0.00,,---,0.00,VWS V13.01,2013-05-19 11:58:00,
2013-05-19 06:03:00,65.5,29.7,25.94,North,0,0.0,0.0,26,0.00,,---,0.00,VWS V13.01,2013-05-19 12:03:00,
2013-05-19 06:08:00,65.5,29.7,25.94,North,0,0.0,0.0,26,0.00,,---,0.00,VWS V13.01,2013-05-19 12:08:00,
2013-05-19 06:13:00,65.5,29.7,25.94,North,0,0.0,0.0,26,0.00,,---,0.00,VWS V13.01,2013-05-19 12:13:00,
2013-05-19 06:18:00,65.5,29.7,25.94,North,0,0.0,0.0,26,0.00,,---,0.00,VWS V13.01,2013-05-19 12:18:00,
2013-05-19 06:23:00,65.5,29.7,25.97,North,0,0.0,0.0,26,0.00,,---,0.00,VWS V13.01,2013-05-19 12:23:00,
2013-05-19 06:28:00,65.8,30.0,25.97,North,0,0.0,0.0,26,0.00,,---,0.00,VWS V13.01,2013-05-19 12:28:00,
2013-05-19 06:33:00,66.0,30.2,25.97,North,0,0.0,0.0,26,0.00,,---,0.00,VWS V13.01,2013-05-19 12:33:00,
2013-05-19 06:38:00,66.4,30.5,25.97,North,0,0.0,0.0,26,0.00,,---,0.00,VWS V13.01,2013-05-19 12:38:00,
2013-05-19 06:43:00,66.9,30.0,25.97,North,0,0.0,0.0,25,0.00,,---,0.00,VWS V13.01,2013-05-19 12:43:00,
2013-05-19 06:48:00,67.5,30.4,25.97,North,0,0.0,0.0,25,0.00,,---,0.00,VWS V13.01,2013-05-19 12:48:00,
2013-05-19 06:53:00,67.8,30.7,25.97,North,0,0.0,0.0,25,0.00,,---,0.00,VWS V13.01,2013-05-19 12:53:00,
2013-05-19 06:58:00,68.0,29.9,25.97,North,0,0.0,0.0,24,0.00,,---,0.00,VWS V13.01,2013-05-19 12:58:00,
2013-05-19 07:03:00,68.0,29.9,25.97,North,0,0.0,0.0,24,0.00,,---,0.00,VWS V13.01,2013-05-19 13:03:00,
2013-05-19 07:08:00,67.8,29.7,25.97,North,0,0.0,0.0,24,0.00,,---,0.00,VWS V13.01,2013-05-19 13:08:00,
2013-05-19 07:13:00,67.8,29.7,25.97,North,0,0.0,0.0,24,0.00,,---,0.00,VWS V13.01,2013-05-19 13:13:00,
2013-05-19 07:18:00,67.6,29.6,25.97,North,0,0.0,0.0,24,0.00,,---,0.00,VWS V13.01,2013-05-19 13:18:00,
2013-05-19 07:23:00,67.6,29.6,25.97,North,0,0.0,0.0,24,0.00,,---,0.00,VWS V13.01,2013-05-19 13:23:00,
2013-05-19 07:28:00,67.5,29.4,25.97,North,0,0.0,0.0,24,0.00,,---,0.00,VWS V13.01,2013-05-19 13:28:00,
2013-05-19 07:33:00,67.5,29.4,25.97,North,0,0.0,0.0,24,0.00,,---,0.00,VWS V13.01,2013-05-19 13:33:00,
2013-05-19 07:38:00,67.5,29.4,25.97,North,0,0.0,0.0,24,0.00,,---,0.00,VWS V13.01,2013-05-19 13:38:00,
2013-05-19 07:43:00,67.5,29.4,25.97,North,0,0.0,0.0,24,0.00,,---,0.00,VWS V13.01,2013-05-19 13:43:00,
2013-05-19 07:48:00,67.6,29.6,25.97,North,0,0.0,0.0,24,0.00,,---,0.00,VWS V13.01,2013-05-19 13:48:00,
2013-05-19 07:53:00,67.8,29.7,26.00,North,0,0.0,0.0,24,0.00,,---,0.00,VWS V13.01,2013-05-19 13:53:00,
2013-05-19 07:58:00,68.0,28.9,26.00,North,0,0.0,0.0,23,0.00,,---,0.00,VWS V13.01,2013-05-19 13:58:00,
2013-05-19 08:03:00,68.4,29.1,26.00,North,0,0.0,0.0,23,0.00,,---,0.00,VWS V13.01,2013-05-19 14:03:00,
2013-05-19 08:08:00,68.9,29.6,26.00,North,0,0.0,0.0,23,0.00,,---,0.00,VWS V13.01,2013-05-19 14:08:00,
2013-05-19 08:13:00,69.3,29.9,26.00,North,0,0.0,0.0,23,0.00,,---,0.00,VWS V13.01,2013-05-19 14:13:00,
2013-05-19 08:18:00,69.8,30.4,26.00,North,0,0.0,0.0,23,0.00,,---,0.00,VWS V13.01,2013-05-19 14:18:00,
2013-05-19 08:23:00,70.7,31.1,25.97,North,0,0.0,0.0,23,0.00,,---,0.00,VWS V13.01,2013-05-19 14:23:00,
2013-05-19 08:28:00,70.9,30.2,25.97,North,0,0.0,0.0,22,0.00,,---,0.00,VWS V13.01,2013-05-19 14:28:00,
2013-05-19 08:33:00,70.7,30.0,25.97,North,0,0.0,0.0,22,0.00,,---,0.00,VWS V13.01,2013-05-19 14:33:00,
2013-05-19 08:38:00,70.5,29.9,26.00,North,0,0.0,0.0,22,0.00,,---,0.00,VWS V13.01,2013-05-19 14:38:00,
2013-05-19 08:43:00,70.5,29.9,26.00,North,0,0.0,0.0,22,0.00,,---,0.00,VWS V13.01,2013-05-19 14:43:00,
2013-05-19 08:48:00,70.7,30.0,26.00,North,0,0.0,0.0,22,0.00,,---,0.00,VWS V13.01,2013-05-19 14:48:00,
2013-05-19 08:53:00,71.1,30.3,26.00,North,0,0.0,0.0,22,0.00,,---,0.00,VWS V13.01,2013-05-19 14:53:00,
2013-05-19 08:58:00,72.0,31.1,26.00,North,0,0.0,0.0,22,0.00,,---,0.00,VWS V13.01,2013-05-19 14:58:00,
2013-05-19 09:03:00,72.9,31.8,26.00,North,0,0.0,0.0,22,0.00,,---,0.00,VWS V13.01,2013-05-19 15:03:00,
2013-05-19 09:08:00,74.1,31.7,26.00,North,0,0.0,0.0,21,0.00,,---,0.00,VWS V13.01,2013-05-19 15:08:00,
2013-05-19 09:13:00,75.6,31.7,26.00,North,0,0.0,0.0,20,0.00,,---,0.00,VWS V13.01,2013-05-19 15:13:00,
2013-05-19 09:18:00,77.2,33.0,26.00,North,0,0.0,0.0,20,0.00,,---,0.00,VWS V13.01,2013-05-19 15:18:00,
2013-05-19 09:23:00,78.4,31.5,26.02,North,0,0.0,0.0,18,0.00,,---,0.00,VWS V13.01,2013-05-19 15:23:00,
2013-05-19 09:28:00,78.3,31.3,26.02,North,0,0.0,0.0,18,0.00,,---,0.00,VWS V13.01,2013-05-19 15:28:00,
2013-05-19 09:33:00,77.7,30.9,26.02,North,0,0.0,0.0,18,0.00,,---,0.00,VWS V13.01,2013-05-19 15:33:00,
2013-05-19 09:38:00,76.6,30.0,26.02,North,0,0.0,0.0,18,0.00,,---,0.00,VWS V13.01,2013-05-19 15:38:00,
2013-05-19 09:43:00,76.1,29.6,26.02,North,0,0.0,0.0,18,0.00,,---,0.00,VWS V13.01,2013-05-19 15:43:00,
2013-05-19 09:48:00,75.7,29.3,26.02,North,0,0.0,0.0,18,0.00,,---,0.00,VWS V13.01,2013-05-19 15:48:00,
2013-05-19 09:53:00,74.8,28.5,26.02,North,0,0.0,0.0,18,0.00,,---,0.00,VWS V13.01,2013-05-19 15:53:00,
2013-05-19 09:58:00,74.5,28.2,26.02,North,0,0.0,0.0,18,0.00,,---,0.00,VWS V13.01,2013-05-19 15:58:00,
2013-05-19 10:03:00,74.3,28.1,26.02,North,0,0.0,0.0,18,0.00,,---,0.00,VWS V13.01,2013-05-19 16:03:00,
2013-05-19 10:08:00,74.3,28.1,26.00,North,0,0.0,0.0,18,0.00,,---,0.00,VWS V13.01,2013-05-19 16:08:00,
2013-05-19 10:13:00,74.3,28.1,26.00,North,0,0.0,0.0,18,0.00,,---,0.00,VWS V13.01,2013-05-19 16:13:00,
2013-05-19 10:19:00,74.1,27.9,26.00,North,0,0.0,0.0,18,0.00,,---,0.00,VWS V13.01,2013-05-19 16:19:00,
2013-05-19 10:24:00,74.8,28.5,26.00,North,0,0.0,0.0,18,0.00,,---,0.00,VWS V13.01,2013-05-19 16:24:00,
2013-05-19 10:29:00,76.6,30.0,26.00,North,0,0.0,0.0,18,0.00,,---,0.00,VWS V13.01,2013-05-19 16:29:00,
2013-05-19 10:34:00,77.9,31.0,26.00,North,0,0.0,0.0,18,0.00,,---,0.00,VWS V13.01,2013-05-19 16:34:00,
2013-05-19 10:39:00,78.8,30.4,26.02,North,0,0.0,0.0,17,0.00,,---,0.00,VWS V13.01,2013-05-19 16:39:00,
2013-05-19 10:44:00,78.1,31.2,26.02,North,0,0.0,0.0,18,0.00,,---,0.00,VWS V13.01,2013-05-19 16:44:00,
2013-05-19 10:49:00,78.1,31.2,26.02,North,0,0.0,0.0,18,0.00,,---,0.00,VWS V13.01,2013-05-19 16:49:00,
2013-05-19 10:54:00,77.5,30.7,26.02,North,0,0.0,0.0,18,0.00,,---,0.00,VWS V13.01,2013-05-19 16:54:00,
2013-05-19 10:59:00,77.0,30.3,26.02,North,0,0.0,0.0,18,0.00,,---,0.00,VWS V13.01,2013-05-19 16:59:00,
2013-05-19 11:04:00,77.5,30.7,26.02,North,0,0.0,0.0,18,0.00,,---,0.00,VWS V13.01,2013-05-19 17:04:00,
2013-05-19 11:09:00,78.6,31.6,26.00,North,0,0.0,0.0,18,0.00,,---,0.00,VWS V13.01,2013-05-19 17:09:00,
2013-05-19 11:14:00,79.0,30.5,26.00,North,0,0.0,0.0,17,0.00,,---,0.00,VWS V13.01,2013-05-19 17:14:00,
2013-05-19 11:19:00,80.1,31.4,26.00,North,0,0.0,0.0,17,0.00,,---,0.00,VWS V13.01,2013-05-19 17:19:00,
2013-05-19 11:24:00,81.1,32.2,26.00,North,0,0.0,0.0,17,0.00,,---,0.00,VWS V13.01,2013-05-19 17:24:00,
2013-05-19 11:29:00,81.3,32.4,26.00,North,0,0.0,0.0,17,0.00,,---,0.00,VWS V13.01,2013-05-19 17:29:00,
2013-05-19 11:34:00,80.2,31.5,26.00,North,0,0.0,0.0,17,0.00,,---,0.00,VWS V13.01,2013-05-19 17:34:00,
2013-05-19 11:39:00,80.2,31.5,26.00,North,0,0.0,0.0,17,0.00,,---,0.00,VWS V13.01,2013-05-19 17:39:00,
2013-05-19 11:44:00,80.4,31.7,26.00,North,0,0.0,0.0,17,0.00,,---,0.00,VWS V13.01,2013-05-19 17:44:00,
2013-05-19 11:49:00,80.2,31.5,26.00,North,0,0.0,0.0,17,0.00,,---,0.00,VWS V13.01,2013-05-19 17:49:00,
2013-05-19 11:54:00,79.5,30.9,26.00,North,0,0.0,0.0,17,0.00,,---,0.00,VWS V13.01,2013-05-19 17:54:00,
2013-05-19 11:59:00,78.6,31.6,26.00,North,0,0.0,0.0,18,0.00,,---,0.00,VWS V13.01,2013-05-19 17:59:00,
2013-05-19 12:04:00,78.6,31.6,26.00,North,0,0.0,0.0,18,0.00,,---,0.00,VWS V13.01,2013-05-19 18:04:00,
2013-05-19 12:09:00,79.7,31.1,26.00,North,0,0.0,0.0,17,0.00,,---,0.00,VWS V13.01,2013-05-19 18:09:00,
2013-05-19 12:14:00,81.0,32.1,26.00,North,0,0.0,0.0,17,0.00,,---,0.00,VWS V13.01,2013-05-19 18:14:00,
2013-05-19 12:19:00,81.1,32.2,26.00,North,0,0.0,0.0,17,0.00,,---,0.00,VWS V13.01,2013-05-19 18:19:00,
2013-05-19 12:24:00,80.2,31.5,26.00,North,0,0.0,0.0,17,0.00,,---,0.00,VWS V13.01,2013-05-19 18:24:00,
2013-05-19 12:29:00,80.1,31.4,26.00,North,0,0.0,0.0,17,0.00,,---,0.00,VWS V13.01,2013-05-19 18:29:00,
2013-05-19 12:34:00,80.2,31.5,26.00,North,0,0.0,0.0,17,0.00,,---,0.00,VWS V13.01,2013-05-19 18:34:00,
2013-05-19 12:39:00,79.5,30.9,26.00,North,0,0.0,0.0,17,0.00,,---,0.00,VWS V13.01,2013-05-19 18:39:00,
2013-05-19 12:44:00,79.0,30.5,26.00,North,0,0.0,0.0,17,0.00,,---,0.00,VWS V13.01,2013-05-19 18:44:00,
2013-05-19 12:49:00,77.7,30.9,26.00,North,0,0.0,0.0,18,0.00,,---,0.00,VWS V13.01,2013-05-19 18:49:00,
2013-05-19 12:54:00,77.4,30.6,25.97,North,0,0.0,0.0,18,0.00,,---,0.00,VWS V13.01,2013-05-19 18:54:00,
2013-05-19 12:59:00,78.6,31.6,25.97,North,0,0.0,0.0,18,0.00,,---,0.00,VWS V13.01,2013-05-19 18:59:00,
2013-05-19 13:04:00,80.8,32.0,25.97,North,0,0.0,0.0,17,0.00,,---,0.00,VWS V13.01,2013-05-19 19:04:00,
2013-05-19 13:09:00,81.1,32.2,25.97,North,0,0.0,0.0,17,0.00,,---,0.00,VWS V13.01,2013-05-19 19:09:00,
2013-05-19 13:14:00,82.0,33.0,25.97,North,0,0.0,0.0,17,0.00,,---,0.00,VWS V13.01,2013-05-19 19:14:00,
2013-05-19 13:19:00,82.6,31.9,25.97,North,0,0.0,0.0,16,0.00,,---,0.00,VWS V13.01,2013-05-19 19:19:00,
2013-05-19 13:24:00,82.0,33.0,25.97,North,0,0.0,0.0,17,0.00,,---,0.00,VWS V13.01,2013-05-19 19:24:00,
2013-05-19 13:29:00,80.8,32.0,25.97,North,0,0.0,0.0,17,0.00,,---,0.00,VWS V13.01,2013-05-19 19:29:00,
2013-05-19 13:34:00,79.9,31.2,25.97,North,0,0.0,0.0,17,0.00,,---,0.00,VWS V13.01,2013-05-19 19:34:00,
2013-05-19 13:39:00,79.5,30.9,25.97,North,0,0.0,0.0,17,0.00,,---,0.00,VWS V13.01,2013-05-19 19:39:00,
2013-05-19 13:44:00,79.3,30.8,25.97,North,0,0.0,0.0,17,0.00,,---,0.00,VWS V13.01,2013-05-19 19:44:00,
2013-05-19 13:49:00,78.8,30.4,25.97,North,0,0.0,0.0,17,0.00,,---,0.00,VWS V13.01,2013-05-19 19:49:00,
2013-05-19 13:54:00,78.3,31.3,25.97,North,0,0.0,0.0,18,0.00,,---,0.00,VWS V13.01,2013-05-19 19:54:00,
2013-05-19 13:59:00,77.5,30.7,25.97,North,0,0.0,0.0,18,0.00,,---,0.00,VWS V13.01,2013-05-19 19:59:00,
2013-05-19 14:04:00,76.6,30.0,25.97,North,0,0.0,0.0,18,0.00,,---,0.00,VWS V13.01,2013-05-19 20:04:00,
2013-05-19 14:09:00,75.9,29.4,25.94,North,0,0.0,0.0,18,0.00,,---,0.00,VWS V13.01,2013-05-19 20:09:00,
2013-05-19 14:14:00,76.1,29.6,25.94,North,0,0.0,0.0,18,0.00,,---,0.00,VWS V13.01,2013-05-19 20:14:00,
2013-05-19 14:19:00,77.5,30.7,25.94,North,0,0.0,0.0,18,0.00,,---,0.00,VWS V13.01,2013-05-19 20:19:00,
2013-05-19 14:24:00,79.5,30.9,25.94,North,0,0.0,0.0,17,0.00,,---,0.00,VWS V13.01,2013-05-19 20:24:00,
2013-05-19 14:29:00,80.6,31.8,25.94,North,0,0.0,0.0,17,0.00,,---,0.00,VWS V13.01,2013-05-19 20:29:00,
2013-05-19 14:34:00,79.2,30.6,25.94,North,0,0.0,0.0,17,0.00,,---,0.00,VWS V13.01,2013-05-19 20:34:00,
2013-05-19 14:39:00,77.7,30.9,25.94,North,0,0.0,0.0,18,0.00,,---,0.00,VWS V13.01,2013-05-19 20:39:00,
2013-05-19 14:44:00,77.0,30.3,25.94,North,0,0.0,0.0,18,0.00,,---,0.00,VWS V13.01,2013-05-19 20:44:00,
2013-05-19 14:49:00,75.7,29.3,25.94,North,0,0.0,0.0,18,0.00,,---,0.00,VWS V13.01,2013-05-19 20:49:00,
2013-05-19 14:54:00,74.5,28.2,25.94,North,0,0.0,0.0,18,0.00,,---,0.00,VWS V13.01,2013-05-19 20:54:00,
2013-05-19 14:59:00,74.1,27.9,25.94,North,0,0.0,0.0,18,0.00,,---,0.00,VWS V13.01,2013-05-19 20:59:00,
2013-05-19 15:04:00,73.4,27.4,25.94,North,0,0.0,0.0,18,0.00,,---,0.00,VWS V13.01,2013-05-19 21:04:00,
2013-05-19 15:09:00,73.0,28.4,25.94,North,0,0.0,0.0,19,0.00,,---,0.00,VWS V13.01,2013-05-19 21:09:00,
2013-05-19 15:14:00,72.9,28.2,25.94,North,0,0.0,0.0,19,0.00,,---,0.00,VWS V13.01,2013-05-19 21:14:00,
2013-05-19 15:19:00,72.7,30.5,25.94,North,0,0.0,0.0,21,0.00,,---,0.00,VWS V13.01,2013-05-19 21:19:00,
2013-05-19 15:24:00,72.1,30.1,25.94,North,0,0.0,0.0,21,0.00,,---,0.00,VWS V13.01,2013-05-19 21:24:00,
2013-05-19 15:29:00,71.8,29.8,25.94,North,0,0.0,0.0,21,0.00,,---,0.00,VWS V13.01,2013-05-19 21:29:00,
2013-05-19 15:34:00,71.6,29.6,25.94,North,0,0.0,0.0,21,0.00,,---,0.00,VWS V13.01,2013-05-19 21:34:00,
2013-05-19 15:39:00,71.6,29.6,25.94,North,0,0.0,0.0,21,0.00,,---,0.00,VWS V13.01,2013-05-19 21:39:00,
2013-05-19 15:44:00,70.9,30.2,25.94,North,0,0.0,0.0,22,0.00,,---,0.00,VWS V13.01,2013-05-19 21:44:00,
2013-05-19 15:49:00,70.3,29.7,25.94,North,0,0.0,0.0,22,0.00,,---,0.00,VWS V13.01,2013-05-19 21:49:00,
2013-05-19 15:54:00,70.0,29.4,25.91,North,0,0.0,0.0,22,0.00,,---,0.00,VWS V13.01,2013-05-19 21:54:00,
2013-05-19 15:59:00,69.6,30.2,25.91,North,0,0.0,0.0,23,0.00,,---,0.00,VWS V13.01,2013-05-19 21:59:00,
2013-05-19 16:04:00,69.4,30.1,25.91,North,0,0.0,0.0,23,0.00,,---,0.00,VWS V13.01,2013-05-19 22:04:00,
2013-05-19 16:09:00,69.4,30.1,25.94,North,0,0.0,0.0,23,0.00,,---,0.00,VWS V13.01,2013-05-19 22:09:00,
2013-05-19 16:14:00,69.4,30.1,25.94,North,0,0.0,0.0,23,0.00,,---,0.00,VWS V13.01,2013-05-19 22:14:00,
2013-05-19 16:19:00,69.4,30.1,25.94,North,0,0.0,0.0,23,0.00,,---,0.00,VWS V13.01,2013-05-19 22:19:00,
2013-05-19 16:24:00,69.4,30.1,25.94,North,0,0.0,0.0,23,0.00,,---,0.00,VWS V13.01,2013-05-19 22:24:00,
2013-05-19 16:29:00,69.6,30.2,25.94,North,0,0.0,0.0,23,0.00,,---,0.00,VWS V13.01,2013-05-19 22:29:00,
2013-05-19 16:34:00,69.6,30.2,25.94,North,0,0.0,0.0,23,0.00,,---,0.00,VWS V13.01,2013-05-19 22:34:00,
2013-05-19 16:39:00,69.4,30.1,25.94,North,0,0.0,0.0,23,0.00,,---,0.00,VWS V13.01,2013-05-19 22:39:00,
2013-05-19 16:44:00,69.4,30.1,25.94,North,0,0.0,0.0,23,0.00,,---,0.00,VWS V13.01,2013-05-19 22:44:00,
2013-05-19 16:49:00,69.4,30.1,25.94,North,0,0.0,0.0,23,0.00,,---,0.00,VWS V13.01,2013-05-19 22:49:00,
2013-05-19 16:54:00,69.4,30.1,25.94,North,0,0.0,0.0,23,0.00,,---,0.00,VWS V13.01,2013-05-19 22:54:00,
2013-05-19 16:59:00,69.4,30.1,25.94,North,0,0.0,0.0,23,0.00,,---,0.00,VWS V13.01,2013-05-19 22:59:00,
2013-05-19 17:05:00,69.4,30.1,25.94,North,0,0.0,0.0,23,0.00,,---,0.00,VWS V13.01,2013-05-19 23:05:00,
2013-05-19 17:10:00,69.4,30.1,25.94,North,0,0.0,0.0,23,0.00,,---,0.00,VWS V13.01,2013-05-19 23:10:00,
2013-05-19 17:15:00,69.4,30.1,25.94,North,0,0.0,0.0,23,0.00,,---,0.00,VWS V13.01,2013-05-19 23:15:00,
2013-05-19 17:20:00,68.9,30.6,25.94,North,0,0.0,0.0,24,0.00,,---,0.00,VWS V13.01,2013-05-19 23:20:00,
2013-05-19 17:25:00,68.7,30.5,25.94,North,0,0.0,0.0,24,0.00,,---,0.00,VWS V13.01,2013-05-19 23:25:00,
2013-05-19 17:30:00,68.5,30.4,25.94,North,0,0.0,0.0,24,0.00,,---,0.00,VWS V13.01,2013-05-19 23:30:00,
2013-05-19 17:35:00,68.5,31.4,25.94,North,0,0.0,0.0,25,0.00,,---,0.00,VWS V13.01,2013-05-19 23:35:00,
2013-05-19 17:40:00,68.7,31.5,25.94,North,0,0.0,0.0,25,0.00,,---,0.00,VWS V13.01,2013-05-19 23:40:00,
2013-05-19 17:45:00,68.9,30.6,25.94,North,0,0.0,0.0,24,0.00,,---,0.00,VWS V13.01,2013-05-19 23:45:00,
2013-05-19 17:50:00,69.1,30.8,25.94,North,0,0.0,0.0,24,0.00,,---,0.00,VWS V13.01,2013-05-19 23:50:00,
2013-05-19 17:55:00,69.1,30.8,25.94,North,0,0.0,0.0,24,0.00,,---,0.00,VWS V13.01,2013-05-19 23:55:00,
2013-05-19 18:00:00,69.1,30.8,25.94,North,0,0.0,0.0,24,0.00,,---,0.00,VWS V13.01,2013-05-20 00:00:00,
2013-05-19 18:05:00,69.1,30.8,25.94,North,0,0.0,0.0,24,0.00,,---,0.00,VWS V13.01,2013-05-20 00:05:00,
2013-05-19 18:10:00,69.1,30.8,25.94,North,0,0.0,0.0,24,0.00,,---,0.00,VWS V13.01,2013-05-20 00:10:00,
2013-05-19 18:15:00,69.1,30.8,25.94,North,0,0.0,0.0,24,0.00,,---,0.00,VWS V13.01,2013-05-20 00:15:00,
2013-05-19 18:20:00,69.1,30.8,25.94,North,0,0.0,0.0,24,0.00,,---,0.00,VWS V13.01,2013-05-20 00:20:00,
2013-05-19 18:25:00,68.9,30.6,25.94,North,0,0.0,0.0,24,0.00,,---,0.00,VWS V13.01,2013-05-20 00:25:00,
2013-05-19 18:30:00,68.9,30.6,25.94,North,0,0.0,0.0,24,0.00,,---,0.00,VWS V13.01,2013-05-20 00:30:00,
2013-05-19 18:35:00,68.9,30.6,25.94,North,0,0.0,0.0,24,0.00,,---,0.00,VWS V13.01,2013-05-20 00:35:00,
2013-05-19 18:40:00,68.9,30.6,25.94,North,0,0.0,0.0,24,0.00,,---,0.00,VWS V13.01,2013-05-20 00:40:00,
2013-05-19 18:45:00,68.7,30.5,25.94,North,0,0.0,0.0,24,0.00,,---,0.00,VWS V13.01,2013-05-20 00:45:00,
2013-05-19 18:50:00,68.7,30.5,25.94,North,0,0.0,0.0,24,0.00,,---,0.00,VWS V13.01,2013-05-20 00:50:00,
2013-05-19 18:56:00,68.5,30.4,25.94,North,0,0.0,0.0,24,0.00,,---,0.00,VWS V13.01,2013-05-20 00:56:00,
2013-05-19 19:01:00,68.2,30.0,25.94,North,0,0.0,0.0,24,0.00,,---,0.00,VWS V13.01,2013-05-20 01:01:00,
2013-05-19 19:06:00,68.0,29.9,25.94,North,0,0.0,0.0,24,0.00,,---,0.00,VWS V13.01,2013-05-20 01:06:00,
2013-05-19 19:11:00,67.8,29.7,25.97,North,0,0.0,0.0,24,0.00,,---,0.00,VWS V13.01,2013-05-20 01:11:00,
2013-05-19 19:16:00,67.6,30.6,25.97,North,0,0.0,0.0,25,0.00,,---,0.00,VWS V13.01,2013-05-20 01:16:00,
2013-05-19 19:21:00,67.5,30.4,25.97,North,0,0.0,0.0,25,0.00,,---,0.00,VWS V13.01,2013-05-20 01:21:00,
2013-05-19 19:26:00,67.5,30.4,25.97,North,0,0.0,0.0,25,0.00,,---,0.00,VWS V13.01,2013-05-20 01:26:00,
2013-05-19 19:31:00,67.3,31.2,25.97,North,0,0.0,0.0,26,0.00,,---,0.00,VWS V13.01,2013-05-20 01:31:00,
2013-05-19 19:36:00,67.3,31.2,25.97,North,0,0.0,0.0,26,0.00,,---,0.00,VWS V13.01,2013-05-20 01:36:00,
2013-05-19 19:41:00,67.3,31.2,25.97,North,0,0.0,0.0,26,0.00,,---,0.00,VWS V13.01,2013-05-20 01:41:00,
2013-05-19 19:46:00,67.1,32.0,25.97,North,0,0.0,0.0,27,0.00,,---,0.00,VWS V13.01,2013-05-20 01:46:00,
2013-05-19 19:51:00,67.1,32.0,25.97,North,0,0.0,0.0,27,0.00,,---,0.00,VWS V13.01,2013-05-20 01:51:00,
2013-05-19 19:56:00,66.9,32.8,25.97,North,0,0.0,0.0,28,0.00,,---,0.00,VWS V13.01,2013-05-20 01:56:00,
2013-05-19 20:01:00,66.7,32.6,25.97,North,0,0.0,0.0,28,0.00,,---,0.00,VWS V13.01,2013-05-20 02:01:00,
2013-05-19 20:06:00,66.7,33.5,25.97,North,0,0.0,0.0,29,0.00,,---,0.00,VWS V13.01,2013-05-20 02:06:00,
2013-05-19 20:11:00,66.7,33.5,25.97,North,0,0.0,0.0,29,0.00,,---,0.00,VWS V13.01,2013-05-20 02:11:00,
2013-05-19 20:16:00,66.6,33.3,25.97,North,0,0.0,0.0,29,0.00,,---,0.00,VWS V13.01,2013-05-20 02:16:00,
2013-05-19 20:21:00,66.6,33.3,25.97,North,0,0.0,0.0,29,0.00,,---,0.00,VWS V13.01,2013-05-20 02:21:00,
2013-05-19 20:26:00,66.4,33.2,25.97,North,0,0.0,0.0,29,0.00,,---,0.00,VWS V13.01,2013-05-20 02:26:00,
2013-05-19 20:31:00,66.4,33.2,25.97,North,0,0.0,0.0,29,0.00,,---,0.00,VWS V13.01,2013-05-20 02:31:00,
2013-05-19 20:36:00,66.4,33.2,26.00,North,0,0.0,0.0,29,0.00,,---,0.00,VWS V13.01,2013-05-20 02:36:00,
2013-05-19 20:41:00,66.4,33.2,26.00,North,0,0.0,0.0,29,0.00,,---,0.00,VWS V13.01,2013-05-20 02:41:00,
2013-05-19 20:46:00,66.2,33.0,26.00,North,0,0.0,0.0,29,0.00,,---,0.00,VWS V13.01,2013-05-20 02:46:00,
2013-05-19 20:51:00,66.4,33.2,26.00,North,0,0.0,0.0,29,0.00,,---,0.00,VWS V13.01,2013-05-20 02:51:00,
2013-05-19 20:56:00,66.4,33.2,26.00,North,0,0.0,0.0,29,0.00,,---,0.00,VWS V13.01,2013-05-20 02:56:00,
2013-05-19 21:01:00,66.4,32.3,26.00,North,0,0.0,0.0,28,0.00,,---,0.00,VWS V13.01,2013-05-20 03:01:00,
2013-05-19 21:06:00,66.4,33.2,26.00,North,0,0.0,0.0,29,0.00,,---,0.00,VWS V13.01,2013-05-20 03:06:00,
2013-05-19 21:11:00,66.2,33.0,26.00,North,0,0.0,0.0,29,0.00,,---,0.00,VWS V13.01,2013-05-20 03:11:00,
2013-05-19 21:16:00,66.0,33.7,26.00,North,0,0.0,0.0,30,0.00,,---,0.00,VWS V13.01,2013-05-20 03:16:00,
2013-05-19 21:21:00,65.8,33.6,26.00,North,0,0.0,0.0,30,0.00,,---,0.00,VWS V13.01,2013-05-20 03:21:00,
2013-05-19 21:26:00,65.8,33.6,26.00,North,0,0.0,0.0,30,0.00,,---,0.00,VWS V13.01,2013-05-20 03:26:00,
2013-05-19 21:31:00,65.7,33.4,26.00,North,0,0.0,0.0,30,0.00,,---,0.00,VWS V13.01,2013-05-20 03:31:00,
2013-05-19 21:37:00,65.7,34.2,26.00,North,0,0.0,0.0,31,0.00,,---,0.00,VWS V13.01,2013-05-20 03:37:00,
2013-05-19 21:42:00,65.7,34.2,26.00,North,0,0.0,0.0,31,0.00,,---,0.00,VWS V13.01,2013-05-20 03:42:00,
2013-05-19 21:47:00,65.7,35.0,26.00,North,0,0.0,0.0,32,0.00,,---,0.00,VWS V13.01,2013-05-20 03:47:00,
2013-05-19 21:52:00,65.7,35.0,26.00,North,0,0.0,0.0,32,0.00,,---,0.00,VWS V13.01,2013-05-20 03:52:00,
2013-05-19 21:57:00,65.7,35.0,26.00,North,0,0.0,0.0,32,0.00,,---,0.00,VWS V13.01,2013-05-20 03:57:00,
2013-05-19 22:01:00,65.5,34.9,26.00,North,0,0.0,0.0,32,0.00,,---,0.00,VWS V13.01,2013-05-20 04:01:00,
2013-05-19 22:02:00,65.5,35.6,26.00,North,0,0.0,0.0,33,0.00,,---,0.00,VWS V13.01,2013-05-20 04:02:00,
2013-05-19 22:07:00,65.5,35.6,26.00,North,0,0.0,0.0,33,0.00,,---,0.00,VWS V13.01,2013-05-20 04:07:00,
2013-05-19 22:12:00,65.5,35.6,26.00,North,0,0.0,0.0,33,0.00,,---,0.00,VWS V13.01,2013-05-20 04:12:00,
2013-05-19 22:17:00,65.7,35.8,26.00,North,0,0.0,0.0,33,0.00,,---,0.00,VWS V13.01,2013-05-20 04:17:00,
2013-05-19 22:22:00,66.2,36.3,26.00,North,0,0.0,0.0,33,0.00,,---,0.00,VWS V13.01,2013-05-20 04:22:00,
2013-05-19 22:27:00,66.6,36.6,26.00,North,0,0.0,0.0,33,0.00,,---,0.00,VWS V13.01,2013-05-20 04:27:00,
2013-05-19 22:32:00,67.1,36.3,26.00,North,0,0.0,0.0,32,0.00,,---,0.00,VWS V13.01,2013-05-20 04:32:00,
2013-05-19 22:37:00,67.5,35.8,26.00,North,0,0.0,0.0,31,0.00,,---,0.00,VWS V13.01,2013-05-20 04:37:00,
2013-05-19 22:42:00,67.5,35.0,26.00,North,0,0.0,0.0,30,0.00,,---,0.00,VWS V13.01,2013-05-20 04:42:00,
2013-05-19 22:47:00,67.5,35.0,26.00,North,0,0.0,0.0,30,0.00,,---,0.00,VWS V13.01,2013-05-20 04:47:00,
2013-05-19 22:52:00,67.5,34.1,26.00,North,0,0.0,0.0,29,0.00,,---,0.00,VWS V13.01,2013-05-20 04:52:00,
2013-05-19 22:57:00,67.3,34.0,26.00,North,0,0.0,0.0,29,0.00,,---,0.00,VWS V13.01,2013-05-20 04:57:00,
2013-05-19 23:02:00,66.9,33.7,26.00,North,0,0.0,0.0,29,0.00,,---,0.00,VWS V13.01,2013-05-20 05:02:00,
2013-05-19 23:07:00,66.9,33.7,25.97,North,0,0.0,0.0,29,0.00,,---,0.00,VWS V13.01,2013-05-20 05:07:00,
2013-05-19 23:12:00,66.9,32.8,25.97,North,0,0.0,0.0,28,0.00,,---,0.00,VWS V13.01,2013-05-20 05:12:00,
2013-05-19 23:17:00,67.1,32.9,25.97,North,0,0.0,0.0,28,0.00,,---,0.00,VWS V13.01,2013-05-20 05:17:00,
2013-05-19 23:22:00,67.5,32.3,25.97,North,0,0.0,0.0,27,0.00,,---,0.00,VWS V13.01,2013-05-20 05:22:00,
2013-05-19 23:27:00,67.6,31.6,25.97,North,0,0.0,0.0,26,0.00,,---,0.00,VWS V13.01,2013-05-20 05:27:00,
2013-05-19 23:32:00,67.8,31.7,25.97,North,0,0.0,0.0,26,0.00,,---,0.00,VWS V13.01,2013-05-20 05:32:00,
2013-05-19 23:37:00,67.8,31.7,25.97,North,0,0.0,0.0,26,0.00,,---,0.00,VWS V13.01,2013-05-20 05:37:00,
2013-05-19 23:42:00,67.6,31.6,25.97,North,0,0.0,0.0,26,0.00,,---,0.00,VWS V13.01,2013-05-20 05:42:00,
2013-05-19 23:47:00,67.5,31.4,25.97,North,0,0.0,0.0,26,0.00,,---,0.00,VWS V13.01,2013-05-20 05:47:00,
2013-05-19 23:52:00,67.3,31.2,25.97,North,0,0.0,0.0,26,0.00,,---,0.00,VWS V13.01,2013-05-20 05:52:00,
2013-05-19 23:57:00,67.1,31.1,25.97,North,0,0.0,0.0,26,0.00,,---,0.00,VWS V13.01,2013-05-20 05:57:00,